Wind_Speed
11 10 9 9 9 9 8 8 7 7 6 6 5 4 3 3 2 1 1 1 1 2 2 2 1 1 1 2 2 2 3 3 4 4 5 5 6 6 7 8 8 8 9
12 12 11 10 10 10 10 9 9 8 7 7 6 5 4 4 3 2 2 1 1 2 2 1 1 0 1 1 1 2 3 3 4 4 5 5 6 7 7 7 8 9 9
14 13 12 12 12 12 11 11 10 10 9 8 7 6 5 5 4 3 3 2 2 2 1 1 1 1 1 1 2 2 3 3 4 5 5 6 6 7 7 8 9 9 10
15 14 14 13 13 13 13 12 12 11 11 10 9 8 7 6 5 4 4 3 3 3 2 2 2 2 2 3 3 3 4 4 5 5 6 6 7 7 8 9 10 10 11
17 16 16 15 15 14 14 14 13 13 12 11 10 9 8 7 6 6 5 4 4 4 4 3 4 4 4 4 4 4 5 5 6 6 7 7 8 8 9 10 11 11 12
19 18 17 17 16 15 15 15 15 14 13 13 12 11 10 9 8 7 7 6 5 5 5 5 5 5 5 6 6 6 6 7 7 7 8 8 9 9 10 11 11 12 13
21 20 19 18 18 17 17 17 16 16 15 14 13 12 12 11 10 9 8 8 7 7 7 6 6 6 7 7 7 7 8 8 8 8 9 9 10 10 11 12 12 12 13
23 22 22 21 20 20 19 18 18 17 17 16 15 14 13 13 12 11 11 10 10 9 9 8 8 8 8 9 9 9 9 9 9 9 10 10 11 11 12 12 13 13 14
25 24 24 23 22 22 21 20 20 19 18 18 17 16 15 15 14 13 13 12 12 11 11 10 10 10 10 10 10 10 10 11 10 10 10 11 12 12 13 13 14 14 15
27 26 26 26 25 24 23 22 21 20 20 19 18 18 17 16 16 15 14 14 14 13 13 12 12 11 11 11 12 12 12 12 12 12 12 12 13 13 14 14 15 15 16
29 28 28 27 27 26 25 24 23 22 21 20 20 19 18 18 17 17 16 16 15 15 14 14 13 13 13 13 13 13 12 12 12 13 13 13 14 14 15 16 16 17 17
31 30 29 29 28 28 27 26 25 24 23 22 21 20 19 19 19 19 18 18 17 17 16 16 16 15 15 14 14 14 14 13 13 14 14 14 15 16 16 17 18 18 19
32 32 32 32 31 30 29 28 27 26 25 24 23 22 21 21 21 21 21 20 19 19 19 18 18 18 17 17 16 16 15 15 15 16 16 16 17 17 18 19 19 20 20
34 34 32 33 32 32 31 30 29 28 27 26 25 25 24 23 23 23 22 22 21 21 21 21 20 20 19 19 18 18 17 17 17 17 18 18 19 20 20 20 21 22 22
36 35 34 35 34 34 33 33 32 31 29 28 27 26 26 25 24 24 24 23 23 23 23 22 22 22 22 21 20 19 19 19 19 19 20 20 21 21 22 22 23 23 24
37 36 36 36 35 35 35 35 34 33 32 31 30 29 28 27 26 26 25 25 25 25 25 24 24 23 23 23 22 22 22 21 21 21 21 22 23 23 24 25 25 26 26
38 38 37 37 36 36 36 36 37 35 34 33 32 32 30 29 29 28 27 27 27 26 26 26 26 25 25 25 25 24 24 24 23 23 24 24 25 26 27 27 27 27 27
40 40 39 38 37 37 37 37 38 37 36 35 34 34 33 32 30 30 29 29 28 28 28 27 27 27 27 27 27 27 27 27 27 27 27 27 27 27 28 28 28 28 28
41 41 40 40 39 39 39 39 39 39 38 37 36 35 35 33 32 32 32 31 30 30 29 30 29 29 30 29 29 29 30 30 30 30 30 29 29 29 29 29 29 30 30
42 42 41 40 40 40 40 41 41 40 40 39 38 37 37 36 35 34 33 33 32 31 31 31 31 31 31 32 32 32 32 32 32 32 31 31 31 30 30 30 30 31 31
43 43 43 42 41 41 41 41 42 42 41 41 41 40 39 38 37 37 35 34 34 34 33 33 33 33 33 34 34 33 33 33 32 33 33 33 32 32 31 32 32 32 33
43 44 44 44 42 42 42 42 43 44 43 43 43 42 41 41 39 38 38 37 36 36 36 36 35 35 35 35 35 35 34 34 34 34 34 34 33 33 33 33 34 33 34
43 44 44 44 44 44 44 44 44 45 45 44 44 43 42 42 41 40 40 39 38 37 37 38 37 37 37 37 37 37 36 36 36 35 35 34 35 35 34 34 35 35 35
43 44 44 44 44 44 45 45 46 45 46 45 44 44 44 43 43 42 41 40 39 39 39 39 38 38 38 38 39 38 38 38 37 36 36 36 36 36 36 36 37 36 37
44 44 45 45 45 45 46 46 47 47 46 46 46 46 45 45 44 43 43 42 41 40 40 40 40 39 39 39 39 39 39 39 38 38 38 38 37 37 38 38 38 38 38
44 44 45 45 46 46 47 47 47 47 47 47 47 47 46 45 45 45 45 44 43 42 42 42 42 41 41 40 40 40 40 39 39 39 40 39 39 39 39 39 40 40 40
Wind_Direction
229 232 232 232 231 230 230 230 231 230 226 221 221 222 224 224 223 229 204 186 164 151 145 134 119 108 83 59 37 27 21 18 12 9 6 4 3 1 358 356 357 356 354
230 232 232 234 237 236 235 234 234 232 231 229 227 225 226 227 227 227 215 210 196 182 178 169 143 79 49 32 16 6 1 0 358 354 351 349 350 349 350 350 351 350 346
233 234 234 236 237 237 237 236 235 234 233 234 232 229 229 229 230 232 230 225 219 218 223 244 263 273 288 307 325 333 334 336 337 336 337 338 342 344 345 343 342 341 340
234 235 236 237 238 238 238 237 236 235 234 235 234 232 232 232 234 236 237 239 238 236 238 251 266 269 274 285 299 308 314 318 321 324 327 330 334 337 336 334 335 335 335
237 237 238 239 240 239 239 237 237 235 235 237 237 235 234 234 236 237 238 242 245 247 250 258 270 272 275 281 287 296 302 305 310 315 321 323 325 327 328 328 329 330 329
238 239 238 239 240 240 239 239 238 236 236 239 240 240 239 237 238 240 242 243 247 252 255 260 274 279 279 282 284 289 296 299 304 309 313 315 317 319 321 323 324 324 324
238 239 239 239 240 240 240 240 240 239 238 240 242 243 243 241 241 242 244 245 248 253 258 262 268 281 283 284 286 290 294 296 298 303 307 309 311 313 317 318 319 320 321
238 239 240 241 240 241 241 239 240 240 241 242 244 246 245 244 243 244 246 247 250 252 256 262 268 276 283 285 285 288 291 293 296 298 303 305 307 309 312 314 315 316 317
239 240 240 241 240 240 240 239 239 241 242 243 245 247 247 247 247 247 248 249 250 252 254 261 270 273 278 283 284 287 290 290 292 295 299 302 304 307 309 313 314 314 315
241 240 241 240 241 240 240 240 239 240 241 243 245 247 248 249 249 250 250 250 252 253 256 260 267 273 276 279 283 286 289 290 290 292 295 298 301 304 306 308 310 311 312
241 241 242 240 240 240 239 239 240 241 242 244 246 248 250 252 253 253 253 252 253 255 257 260 264 267 272 278 282 284 287 290 291 293 295 296 298 301 303 306 307 309 310
240 239 239 240 240 240 240 239 240 242 244 246 247 250 252 254 255 255 254 254 255 256 258 261 263 266 269 276 280 282 284 287 289 291 293 295 298 300 302 304 305 306 307
240 241 241 241 241 241 241 241 241 242 244 247 249 250 253 256 256 257 256 256 257 258 259 261 264 267 269 273 277 279 282 283 285 288 291 294 296 298 300 302 303 304 305
242 242 243 242 242 242 241 241 241 242 244 246 249 251 253 256 258 258 257 257 258 259 261 262 264 266 269 272 276 278 279 281 283 286 290 292 295 296 298 299 301 302 303
243 244 244 245 244 243 242 241 243 243 245 246 249 252 254 255 257 259 258 257 258 260 261 263 264 266 268 271 273 275 278 281 283 286 289 291 293 295 296 297 299 300 301
244 244 244 245 244 243 242 241 243 245 246 247 249 252 253 255 256 258 259 258 258 259 260 262 264 266 268 270 272 274 276 279 281 284 288 290 291 293 294 296 297 299 300
244 245 246 246 245 244 242 241 243 244 246 248 249 252 254 255 256 258 259 259 259 260 261 262 263 266 269 271 273 275 276 278 280 283 286 288 290 291 292 295 296 298 299
244 245 246 246 246 246 244 242 243 244 247 248 250 251 253 255 257 258 259 259 258 259 261 262 264 266 269 271 274 275 276 278 279 282 284 286 289 290 292 293 295 296 297
244 245 247 247 247 248 246 244 244 245 246 248 250 251 253 256 257 259 258 259 260 261 262 264 266 267 268 271 273 275 276 277 279 282 284 286 288 289 290 291 293 294 295
245 246 246 247 248 248 247 245 244 245 246 248 249 251 253 255 258 258 259 260 261 262 264 265 266 267 269 272 274 275 277 278 280 281 283 286 287 287 289 290 292 293 294
246 245 246 248 248 248 247 246 246 246 247 248 249 251 252 254 257 258 260 261 262 264 265 265 266 268 270 271 273 275 277 279 280 281 282 284 286 287 288 289 290 291 292
247 245 246 247 247 248 248 247 246 246 246 248 250 252 253 255 257 259 260 262 263 265 265 265 267 269 271 272 273 275 277 277 278 280 282 284 285 285 287 288 290 290 291
247 246 247 248 247 248 249 248 247 247 247 249 250 252 254 256 257 259 261 262 264 264 265 266 267 269 270 271 272 274 276 277 278 279 281 283 283 284 286 288 289 289 290
248 247 247 247 248 248 248 248 247 247 248 249 252 253 254 254 256 258 260 261 263 263 264 265 266 269 270 271 273 274 276 277 278 279 280 281 282 283 285 287 289 290 290
248 248 248 248 248 248 248 248 248 248 249 250 251 253 253 253 255 257 259 261 262 263 264 264 266 268 270 272 274 275 275 276 277 278 279 280 281 283 285 286 287 289 291
249 249 248 248 248 248 248 248 248 249 249 251 251 252 254 254 254 256 259 260 261 262 263 264 265 267 269 272 273 274 275 276 277 278 278 279 281 283 284 285 287 288 290
Height
5864 5864 5866 5867 5868 5869 5870 5870 5871 5871 5872 5872 5872 5873 5873 5874 5874 5874 5874 5874 5874 5874 5875 5875 5875 5875 5875 5875 5875 5875 5875 5875 5875 5874 5874 5874 5873 5873 5872 5871 5871 5870 5869
5862 5863 5864 5865 5866 5867 5868 5869 5870 5870 5871 5871 5872 5872 5873 5873 5873 5874 5874 5874 5874 5874 5875 5875 5875 5875 5875 5875 5875 5875 5875 5874 5874 5874 5874 5874 5873 5872 5872 5871 5870 5869 5868
5860 5861 5862 5863 5865 5866 5867 5868 5869 5869 5870 5870 5871 5871 5872 5872 5873 5873 5873 5874 5874 5874 5874 5874 5875 5875 5875 5874 5874 5874 5874 5874 5874 5874 5873 5873 5872 5872 5871 5870 5870 5869 5867
5858 5859 5860 5861 5863 5864 5865 5866 5867 5868 5869 5869 5870 5871 5871 5871 5872 5872 5873 5873 5873 5874 5874 5874 5874 5874 5874 5874 5874 5874 5874 5873 5873 5873 5873 5872 5872 5871 5870 5869 5869 5868 5866
5855 5856 5858 5859 5860 5862 5863 5864 5865 5866 5867 5868 5869 5869 5870 5871 5871 5871 5872 5872 5873 5873 5873 5873 5873 5873 5873 5873 5873 5873 5873 5872 5872 5872 5872 5871 5871 5870 5869 5868 5867 5866 5865
5852 5854 5855 5856 5858 5859 5860 5862 5863 5864 5865 5866 5867 5868 5869 5869 5870 5870 5871 5871 5872 5872 5872 5872 5872 5872 5872 5872 5872 5872 5872 5871 5871 5871 5870 5870 5869 5869 5868 5867 5866 5865 5864
5849 5850 5852 5854 5855 5856 5858 5859 5860 5862 5863 5864 5865 5866 5867 5868 5868 5869 5869 5870 5870 5871 5871 5871 5871 5871 5871 5871 5871 5871 5870 5870 5870 5869 5869 5868 5868 5867 5866 5865 5864 5863 5862
5845 5847 5848 5850 5852 5853 5855 5856 5858 5859 5860 5861 5863 5864 5865 5866 5866 5867 5867 5868 5868 5869 5869 5869 5869 5869 5869 5869 5869 5869 5869 5868 5868 5868 5867 5866 5866 5865 5864 5863 5862 5861 5860
5841 5843 5844 5846 5848 5849 5851 5853 5854 5856 5857 5859 5860 5861 5862 5863 5864 5865 5865 5866 5866 5867 5867 5867 5867 5867 5867 5867 5867 5867 5867 5866 5866 5866 5865 5865 5864 5863 5862 5862 5860 5859 5858
5836 5838 5839 5841 5843 5845 5847 5849 5851 5852 5854 5855 5857 5858 5859 5860 5861 5862 5863 5863 5864 5864 5864 5865 5865 5865 5865 5865 5865 5865 5865 5864 5864 5863 5863 5862 5862 5861 5860 5859 5858 5857 5856
5830 5832 5834 5836 5838 5840 5843 5845 5847 5848 5850 5851 5853 5854 5856 5857 5858 5859 5860 5860 5861 5861 5862 5862 5862 5863 5863 5862 5862 5862 5862 5862 5861 5861 5860 5860 5859 5858 5857 5856 5855 5854 5853
5824 5826 5828 5830 5833 5835 5838 5840 5842 5844 5846 5848 5849 5851 5852 5854 5855 5856 5856 5857 5858 5858 5859 5859 5859 5860 5860 5860 5860 5859 5859 5859 5859 5858 5858 5857 5856 5855 5854 5853 5852 5851 5849
5817 5820 5822 5824 5827 5830 5832 5835 5837 5840 5842 5844 5845 5847 5848 5850 5851 5852 5852 5853 5854 5854 5855 5856 5856 5856 5856 5856 5856 5856 5856 5856 5856 5855 5854 5854 5853 5852 5851 5850 5849 5847 5846
5810 5813 5815 5818 5821 5823 5826 5829 5832 5834 5837 5839 5840 5842 5844 5845 5846 5847 5848 5849 5850 5850 5851 5851 5852 5852 5852 5853 5853 5853 5853 5852 5852 5851 5851 5850 5849 5848 5847 5846 5845 5843 5842
5803 5806 5809 5811 5814 5816 5819 5822 5825 5828 5831 5833 5835 5837 5838 5840 5841 5842 5843 5844 5845 5845 5846 5847 5847 5848 5848 5848 5848 5848 5849 5848 5848 5848 5847 5846 5845 5844 5843 5841 5840 5839 5837
5796 5799 5801 5803 5806 5809 5812 5815 5819 5822 5824 5827 5829 5830 5832 5834 5835 5837 5838 5839 5839 5840 5840 5841 5842 5842 5843 5843 5844 5844 5844 5843 5843 5843 5842 5841 5840 5839 5838 5836 5835 5834 5832
5787 5791 5793 5796 5798 5801 5804 5808 5811 5814 5818 5820 5822 5824 5826 5827 5829 5831 5832 5833 5834 5834 5835 5835 5836 5837 5837 5838 5838 5838 5838 5838 5838 5837 5837 5836 5835 5834 5832 5831 5830 5828 5826
5779 5782 5785 5787 5790 5793 5796 5800 5803 5807 5810 5813 5815 5817 5819 5821 5822 5824 5825 5826 5827 5828 5828 5829 5830 5831 5831 5832 5832 5832 5832 5832 5832 5831 5831 5830 5829 5828 5826 5825 5824 5822 5820
5770 5773 5777 5779 5782 5785 5788 5791 5795 5798 5802 5805 5807 5809 5811 5813 5815 5817 5818 5819 5820 5821 5822 5823 5823 5824 5824 5825 5825 5825 5826 5826 5825 5825 5824 5823 5822 5821 5820 5819 5817 5815 5814
5760 5764 5768 5771 5774 5777 5780 5783 5787 5790 5794 5797 5799 5801 5804 5806 5808 5809 5811 5812 5813 5814 5815 5815 5816 5817 5817 5817 5818 5818 5818 5818 5818 5818 5817 5816 5815 5814 5813 5812 5810 5809 5807
5751 5755 5759 5762 5765 5768 5771 5774 5778 5781 5785 5788 5791 5793 5795 5797 5799 5801 5803 5804 5805 5806 5807 5808 5809 5809 5810 5810 5810 5811 5811 5811 5811 5810 5809 5808 5808 5807 5805 5804 5803 5801 5799
5742 5745 5749 5752 5756 5759 5762 5765 5769 5773 5776 5779 5782 5784 5786 5788 5791 5793 5794 5796 5797 5798 5799 5800 5800 5801 5801 5802 5802 5802 5803 5804 5803 5802 5801 5800 5800 5799 5798 5796 5795 5793 5791
5732 5735 5739 5742 5746 5749 5752 5755 5759 5762 5766 5769 5772 5775 5777 5780 5782 5784 5785 5787 5788 5789 5790 5791 5792 5792 5793 5793 5793 5794 5794 5794 5795 5795 5794 5793 5792 5791 5790 5788 5786 5785 5783
5722 5725 5729 5732 5735 5739 5742 5745 5748 5752 5756 5760 5762 5765 5767 5770 5772 5774 5775 5777 5779 5780 5781 5782 5783 5783 5784 5784 5785 5785 5785 5785 5785 5786 5786 5784 5783 5782 5781 5780 5778 5776 5774
5711 5715 5718 5722 5725 5728 5732 5735 5738 5742 5746 5749 5752 5754 5757 5759 5762 5763 5765 5767 5769 5770 5771 5773 5774 5774 5775 5775 5775 5776 5776 5776 5775 5776 5776 5776 5775 5773 5772 5771 5769 5767 5765
5701 5704 5708 5711 5714 5717 5721 5724 5727 5730 5734 5738 5741 5743 5746 5749 5751 5753 5755 5757 5759 5760 5762 5763 5764 5765 5765 5766 5766 5766 5766 5766 5766 5766 5766 5766 5765 5764 5763 5761 5759 5757 5755